Theta_e
312 316 317 318 317 316 316 315 317 314 311 314 316 316 315 307 307 306 304 303 302 300 297 297 296 297 299 301 306 308 310 308 309 309 307 304 301 297 296 298 300 302 303 305
312 316 317 313 313 313 313 316 317 313 311 312 315 315 314 307 307 306 304 303 302 300 299 297 296 296 297 298 299 301 302 303 303 303 302 299 296 293 292 293 295 297 298 298
316 316 312 311 311 312 313 315 316 316 313 311 312 317 313 306 304 303 302 302 301 301 299 297 296 295 295 294 295 298 301 301 301 301 299 296 294 293 292 290 290 290 291 291
313 311 310 311 312 312 315 311 312 312 314 320 310 323 315 309 306 303 302 301 301 299 297 295 294 293 293 292 292 294 296 299 299 298 296 296 294 291 289 288 288 287 287 287
316 312 313 314 314 311 317 311 312 313 315 315 314 317 319 307 309 306 303 302 301 299 297 295 293 291 290 291 291 291 294 295 295 294 293 291 290 288 288 288 287 286 286 286
315 309 312 314 310 311 309 311 310 310 313 319 318 317 319 312 311 308 304 302 300 298 295 293 291 290 289 289 289 289 289 289 290 291 290 290 289 288 288 288 288 287 286 285
316 313 309 308 312 308 311 315 321 321 320 321 310 314 318 311 307 307 304 302 300 297 295 293 291 290 289 288 288 288 288 287 288 288 288 288 288 288 288 288 287 287 286 285
323 323 312 310 317 315 312 318 324 327 322 319 310 316 315 308 305 304 305 302 300 297 295 293 291 290 289 288 288 287 287 287 287 287 287 287 287 287 286 286 286 285 284 283
321 322 309 308 308 313 312 314 314 314 309 319 317 313 311 306 305 303 303 301 300 298 295 293 291 290 289 288 287 287 287 286 286 286 287 287 286 286 285 285 284 284 283 282
316 323 309 308 309 310 311 312 316 316 324 325 316 314 316 309 308 303 302 301 300 298 296 294 291 289 288 288 287 287 287 286 286 286 286 286 286 286 285 285 284 283 283 282
313 316 314 309 311 314 312 313 313 316 317 322 320 314 309 311 310 305 304 302 301 298 297 295 293 290 288 287 287 287 286 286 286 286 286 286 286 285 285 285 284 283 282 281
315 316 318 313 309 306 313 314 314 320 315 312 313 317 306 307 307 307 305 303 302 299 297 296 294 291 289 287 287 287 286 286 287 286 286 286 286 286 285 285 285 284 282 281
314 318 324 318 311 308 311 312 313 313 315 319 321 320 305 305 305 305 305 303 301 300 298 297 295 293 291 288 287 286 286 286 286 286 286 285 285 285 285 284 284 284 283 282
314 318 322 326 320 315 314 313 312 314 320 319 317 315 308 308 307 305 304 303 301 300 299 298 295 293 292 290 288 287 286 286 286 286 286 285 285 285 284 284 284 283 282 280
314 319 318 319 310 313 315 314 313 314 315 319 318 313 310 309 308 306 305 304 302 301 299 298 298 295 293 291 289 287 287 286 286 285 285 285 285 285 284 284 283 282 281 280
310 319 317 317 309 308 311 314 313 313 314 314 314 313 310 308 306 306 304 302 302 301 300 298 297 296 294 291 290 287 286 286 285 285 285 285 285 285 284 283 282 281 280 279
312 316 315 320 313 307 312 312 312 312 312 314 315 314 306 305 306 306 305 302 302 301 299 297 295 294 293 291 290 288 286 285 285 286 286 285 285 284 283 282 281 280 279 277
312 314 314 308 306 315 311 298 308 310 310 308 305 306 307 306 303 302 302 302 300 298 296 295 294 293 291 291 289 288 287 286 286 285 285 285 284 284 282 281 280 279 277 276
300 308 303 308 309 312 299 295 304 309 311 306 307 302 298 293 295 294 294 296 297 294 294 294 293 291 290 290 290 289 288 287 286 286 286 285 284 283 281 280 278 277 276 275
299 302 312 303 314 317 307 294 292 298 305 301 304 299 294 293 302 301 292 292 292 291 290 290 290 291 291 291 289 289 288 287 286 287 286 285 284 282 280 278 277 276 275 275
303 303 309 307 311 308 300 292 291 305 310 294 300 297 293 297 299 294 291 289 290 290 289 289 289 290 292 290 288 287 287 287 288 286 285 283 282 280 278 277 276 275 274 273
306 307 307 303 309 311 292 290 299 298 291 292 293 292 293 292 289 290 290 289 288 288 287 288 288 288 289 288 287 287 287 288 286 284 283 281 279 278 277 275 274 274 272 271
304 303 306 306 307 293 292 293 292 292 294 291 292 291 292 290 289 289 289 288 287 287 287 287 287 288 287 287 287 286 287 286 284 282 281 279 277 276 274 273 273 272 271 269
291 289 296 300 294 292 292 290 291 290 292 291 291 290 289 290 289 288 288 287 287 287 287 287 286 285 285 286 286 286 286 284 283 281 278 276 275 274 273 272 272 271 269 269
293 291 292 291 289 290 290 291 291 291 289 288 288 288 289 288 288 288 287 287 287 287 287 286 285 285 286 286 285 285 284 282 281 278 276 275 274 273 272 272 271 270 269 269
290 291 292 296 292 293 293 292 290 290 289 289 289 287 286 287 288 286 287 287 286 286 286 285 285 285 286 285 284 283 282 280 279 276 274 273 272 271 270 269 269 269 268 269
Wind_Speed
3 8 13 19 17 5 2 4 7 3 2 4 11 13 8 4 5 6 6 6 6 6 5 6 7 8 10 12 15 17 19 17 14 15 17 18 20 19 20 21 20 19 18 16
4 14 15 2 9 9 7 9 13 4 3 4 9 14 8 6 4 5 7 7 7 8 8 9 10 11 12 13 14 14 15 14 14 15 16 16 18 20 21 22 24 23 21 21
13 2 9 9 8 11 12 14 11 9 3 4 5 14 11 4 5 7 7 7 7 9 10 9 11 13 13 14 13 16 17 18 18 20 22 23 22 19 19 19 22 24 23 23
9 4 7 10 12 12 15 13 9 7 5 9 3 6 5 8 10 11 11 11 10 9 7 9 10 11 11 12 13 16 16 16 15 13 16 18 19 21 17 18 21 22 22 22
6 10 11 11 8 13 6 6 10 7 11 5 8 6 3 6 12 13 15 14 12 10 9 8 8 9 9 10 13 16 20 21 20 19 20 21 23 19 16 16 19 20 20 20
5 1 5 5 3 8 14 9 5 3 3 8 15 13 8 7 10 17 18 17 16 14 11 9 7 8 9 10 12 13 18 19 20 21 21 23 22 17 15 13 15 14 14 15
6 8 4 3 5 3 6 10 4 5 6 7 3 9 12 6 8 16 24 21 18 15 13 11 11 10 10 10 12 12 14 18 19 21 22 21 19 17 15 13 13 11 10 12
11 8 15 13 18 10 16 18 7 7 6 3 2 8 5 2 6 2 17 19 19 17 14 13 16 14 14 12 12 13 16 19 18 19 19 17 16 15 15 14 13 10 10 11
10 7 3 6 4 12 10 11 4 5 1 2 6 5 6 6 6 7 15 19 20 18 17 16 18 15 14 13 13 13 15 17 18 17 16 16 15 15 15 14 13 11 9 8
5 4 1 4 4 1 6 12 5 5 5 6 4 5 8 10 14 10 15 19 19 18 17 16 19 18 17 15 13 13 14 17 18 17 15 14 15 14 13 12 11 9 7 7
4 3 4 4 12 17 6 7 5 3 4 4 3 5 5 10 17 19 19 21 22 20 18 16 21 20 17 16 17 17 17 18 18 16 16 16 14 13 11 10 9 6 5 5
11 2 7 14 0 2 11 8 15 7 6 4 2 5 4 4 10 16 17 18 20 19 19 20 21 21 20 20 19 19 19 18 18 17 17 15 14 12 10 8 7 4 2 4
13 5 3 3 5 4 9 11 13 6 2 11 7 4 4 2 6 12 14 17 18 19 19 18 21 23 23 22 21 21 21 20 19 20 18 16 14 12 9 8 5 2 1 4
18 10 15 18 6 12 12 17 15 13 9 12 17 8 8 10 11 12 13 16 18 19 20 18 18 23 23 23 24 24 22 21 21 21 18 16 14 12 10 8 6 4 3 4
14 14 21 25 7 7 8 20 22 23 29 17 17 17 17 17 16 17 17 16 17 19 19 20 18 22 23 23 24 22 23 24 23 22 19 18 15 14 13 11 9 6 5 6
6 12 20 21 10 9 8 17 27 29 25 22 11 14 13 14 7 11 15 16 17 17 19 18 16 20 22 24 25 25 25 24 25 22 22 19 18 18 16 14 11 10 9 9
13 15 8 21 13 4 7 27 21 21 18 22 19 15 9 7 13 14 14 16 17 16 16 15 14 19 20 23 26 27 26 25 30 29 28 25 22 21 19 17 14 13 11 11
8 18 6 3 6 10 7 0 15 18 15 14 2 6 14 10 8 8 10 14 13 13 13 10 14 15 16 17 21 22 27 29 31 32 30 26 25 23 20 18 16 14 12 12
1 5 4 5 7 3 1 4 8 14 16 12 15 6 6 6 6 3 7 8 12 11 12 12 12 13 14 16 19 24 26 27 28 30 29 27 26 24 21 18 15 14 13 13
2 3 6 3 6 9 1 3 2 3 6 10 13 10 11 8 7 6 12 9 8 11 12 12 10 10 13 17 19 22 24 24 26 29 29 26 25 23 20 17 15 14 13 14
5 3 6 5 4 4 3 5 3 7 4 3 8 9 13 7 3 5 11 7 10 13 13 11 13 16 19 19 22 23 22 24 26 25 24 24 23 20 18 16 15 14 14 14
9 9 4 3 3 9 8 5 8 2 3 5 6 9 9 4 6 11 12 10 10 11 12 14 17 21 20 20 23 24 25 23 22 20 21 22 21 18 17 16 15 14 14 15
4 1 4 7 3 2 10 3 2 1 5 5 7 7 9 10 8 11 9 8 9 13 16 17 22 23 22 23 25 26 25 21 20 20 22 20 18 18 17 15 14 14 14 14
3 2 2 2 3 3 7 1 2 2 3 5 3 5 7 6 9 8 6 7 7 11 14 16 17 21 23 25 25 24 22 19 19 21 21 20 19 18 16 15 16 15 14 12
2 8 5 1 2 3 2 7 5 6 2 4 4 5 7 6 5 8 7 5 10 14 15 16 20 24 27 25 24 23 22 19 21 21 21 19 18 18 16 18 17 16 16 15
6 6 5 3 8 6 8 17 13 8 8 7 7 3 3 6 7 6 8 15 14 15 17 17 22 25 26 21 20 21 21 21 23 22 21 19 18 17 17 15 14 17 16 13
Wind_Direction
150 205 215 215 214 233 177 210 238 173 145 229 243 254 199 179 171 168 160 144 128 112 98 82 79 81 85 84 93 98 103 102 102 100 96 90 82 76 71 68 66 65 68 68
160 229 228 191 193 197 216 237 243 267 193 233 253 256 238 196 201 199 171 156 145 131 110 95 90 87 82 82 83 85 87 90 100 105 106 95 88 78 77 73 70 67 65 62
213 184 188 167 170 200 225 225 233 255 159 231 272 265 221 187 175 165 177 152 151 140 130 113 93 82 83 80 85 94 97 100 102 104 106 104 98 90 80 70 68 66 65 63
238 167 154 189 211 200 235 216 223 212 220 257 218 280 207 181 184 190 179 178 166 156 141 120 104 92 88 87 91 95 99 102 101 106 113 111 106 100 91 88 85 75 70 65
200 176 189 204 206 187 255 156 201 204 225 259 199 257 193 173 207 195 187 181 173 167 154 134 110 91 85 89 95 102 106 107 109 110 109 105 102 103 101 95 87 80 72 69
264 36 196 214 96 185 134 108 78 94 191 248 227 217 203 198 215 183 187 185 177 172 163 149 134 125 112 109 109 110 111 108 110 109 105 105 107 109 108 102 92 85 78 70
211 218 172 174 131 111 185 160 194 221 208 245 154 207 250 197 183 191 182 182 178 172 170 165 163 156 144 134 127 120 117 109 111 113 112 114 113 113 108 102 95 91 81 69
203 231 188 193 214 187 196 190 191 213 205 183 134 225 233 96 126 158 183 175 172 176 176 177 176 172 166 160 149 137 130 122 120 119 120 120 119 115 108 102 96 89 82 70
191 239 187 192 152 172 186 214 177 107 1 233 203 235 237 155 169 166 175 176 180 179 180 181 182 181 176 172 164 151 140 134 136 139 135 131 126 119 115 110 104 98 89 74
194 253 213 162 140 109 210 152 182 227 211 234 214 248 222 201 196 183 182 188 185 183 183 182 184 183 184 180 168 163 159 154 155 150 147 141 135 129 123 114 107 101 86 65
132 210 145 143 208 189 162 190 206 203 203 225 243 233 212 193 186 186 194 193 187 185 184 184 188 189 187 182 181 178 173 170 169 164 160 154 149 142 133 126 117 108 81 52
187 174 200 203 154 269 233 220 193 204 189 239 284 247 162 190 188 188 188 190 189 188 189 190 187 187 188 189 188 188 186 183 181 175 172 168 166 158 152 145 138 115 64 19
170 191 193 237 222 191 214 204 215 225 62 203 192 208 169 183 214 198 181 183 186 188 189 191 192 194 195 194 193 194 193 193 187 185 182 181 180 176 176 169 161 169 328 339
165 178 206 225 234 160 209 205 204 196 225 209 230 207 199 192 198 193 185 186 188 191 192 194 195 200 199 199 198 198 198 196 195 193 192 194 193 193 191 195 208 231 284 312
184 222 219 237 238 203 210 199 196 208 222 210 231 219 195 189 195 196 193 185 183 193 196 199 199 200 200 202 201 202 203 200 198 199 200 204 204 205 210 214 229 245 268 292
200 226 224 236 218 217 218 212 207 213 219 234 230 226 189 193 162 179 189 182 192 197 198 198 199 199 203 204 204 202 205 202 201 204 210 210 212 216 221 226 235 249 265 279
186 205 194 228 208 218 266 224 205 210 214 217 219 230 150 180 191 196 186 190 197 194 192 189 193 199 206 207 205 206 202 202 207 213 218 220 221 223 227 232 239 250 264 279
196 208 205 168 133 215 256 32 205 206 197 209 211 168 174 185 180 168 183 188 180 179 175 186 193 198 206 208 209 206 206 209 213 218 224 226 225 226 229 233 239 250 264 274
43 168 151 178 215 356 284 197 186 182 227 202 210 153 148 121 118 183 186 179 179 175 176 179 186 193 201 206 208 206 207 212 215 222 226 225 224 226 228 232 241 253 263 273
153 340 225 166 207 217 193 174 174 116 263 196 190 158 152 151 180 203 176 165 154 156 168 176 185 193 202 208 202 199 204 207 216 226 229 226 224 226 229 233 241 253 263 276
156 181 214 196 220 278 172 169 188 161 260 106 170 157 158 189 207 134 149 158 162 174 184 186 194 202 208 202 196 200 207 215 228 232 228 222 222 223 227 234 244 253 265 275
176 167 184 149 217 249 147 111 184 133 45 132 143 163 180 130 143 148 154 156 165 174 186 199 200 207 212 205 200 205 212 228 231 228 221 218 219 222 228 234 244 256 266 272
219 217 187 200 196 22 164 67 153 226 144 179 152 171 168 162 171 165 168 158 171 189 203 212 214 216 211 205 208 215 227 232 229 223 218 215 216 222 230 237 247 257 264 266
214 193 213 180 88 101 193 73 203 236 162 146 132 140 161 165 172 180 167 168 177 205 222 225 220 223 217 215 219 226 234 232 227 219 212 211 215 222 233 242 249 253 256 256
140 155 152 79 85 109 193 234 216 204 145 117 119 156 183 176 180 183 192 198 196 219 231 229 226 224 227 227 226 228 232 228 215 209 207 210 218 225 233 240 244 249 255 255
187 159 175 189 185 172 199 211 199 190 188 179 164 177 209 190 207 183 204 209 215 222 230 225 228 229 229 226 225 222 221 215 206 200 205 212 217 224 230 237 247 250 249 253